#�ϑ�����,���ϕ���,���ϕ���,�ő啗��,�ő啗����������,�ő�u�ԕ���,�ő�u�ԕ�����������
#(�N����),(m/s)   ,(16����),(m/s)   ,(16����)        ,(m/s)       ,(16����)            
2018/5/9 0:01,3.5,15,3.5,15,3.3,15
2018/5/9 0:02,3.5,15,3.5,15,6.1,14
2018/5/9 0:03,3.4,15,3.5,15,5.7,14
2018/5/9 0:04,3.4,15,3.4,15,5.2,15
2018/5/9 0:05,3.4,15,3.4,15,4.1,15
2018/5/9 0:06,3.3,15,3.3,15,3.5,15
2018/5/9 0:07,3.1,15,3.3,15,3.6,15
2018/5/9 0:08,3.1,15,3.1,15,5.2,15
2018/5/9 0:09,3,15,3.1,15,4.5,15
2018/5/9 0:10,2.8,15,2.9,15,2.9,16
2018/5/9 0:11,2.7,15,2.8,15,2,13
2018/5/9 0:12,2.4,15,2.7,15,2.6,13
2018/5/9 0:13,2.2,15,2.4,15,3,15
2018/5/9 0:14,2.2,15,2.2,15,3.3,16
2018/5/9 0:15,2,14,2.2,15,1.4,16
2018/5/9 0:16,1.8,14,2,15,1.5,12
2018/5/9 0:17,1.8,14,1.8,15,3.1,14
2018/5/9 0:18,1.7,14,1.8,15,3.8,14
2018/5/9 0:19,1.7,14,1.7,15,4.5,1
2018/5/9 0:20,1.9,14,1.9,15,4.9,15
2018/5/9 0:21,2.1,14,2.1,15,5.6,16
2018/5/9 0:22,2.2,14,2.2,15,2.9,13
2018/5/9 0:23,2.2,14,2.2,15,3.2,13
2018/5/9 0:24,2.3,14,2.3,14,4.2,15
2018/5/9 0:25,2.5,14,2.5,14,4.2,15
2018/5/9 0:26,2.6,14,2.6,14,5,15
2018/5/9 0:27,2.5,15,2.6,14,2,15
2018/5/9 0:28,2.3,15,2.5,14,1.8,2
2018/5/9 0:29,2.1,15,2.3,14,3.5,15
2018/5/9 0:30,2.1,15,2.1,14,3.3,15
2018/5/9 0:31,2,14,2.1,14,4.2,15
2018/5/9 0:32,2.2,15,2.2,14,5.8,15
2018/5/9 0:33,2.1,15,2.3,14,3.9,1
2018/5/9 0:34,2.1,15,2.1,14,3.3,15
2018/5/9 0:35,1.9,15,2.1,14,2.1,16
2018/5/9 0:36,1.8,15,1.9,15,2.4,15
2018/5/9 0:37,2,15,2,15,6.1,15
2018/5/9 0:38,2.1,15,2.2,15,3.2,16
2018/5/9 0:39,2.2,15,2.2,15,2.5,11
2018/5/9 0:40,2.1,15,2.1,15,2.9,16
2018/5/9 0:41,2.1,15,2.1,15,6.7,15
2018/5/9 0:42,2.1,15,2.1,15,4.7,14
2018/5/9 0:43,2.2,15,2.2,15,5.2,15
2018/5/9 0:44,2.2,15,2.2,15,3,1
2018/5/9 0:45,2.4,15,2.4,15,5.6,15
2018/5/9 0:46,2.6,15,2.6,15,5.6,14
2018/5/9 0:47,2.6,15,2.6,15,6,16
2018/5/9 0:48,2.8,15,2.8,15,6.9,15
2018/5/9 0:49,2.9,15,2.9,15,4.3,16
2018/5/9 0:50,3,15,3,15,3.6,14
2018/5/9 0:51,3,15,3.1,15,5.2,15
2018/5/9 0:52,2.9,15,3,15,3.8,1
2018/5/9 0:53,2.8,15,2.9,15,2.2,16
2018/5/9 0:54,2.9,15,2.9,15,4.4,15
2018/5/9 0:55,2.9,15,2.9,15,4.5,15
2018/5/9 0:56,2.9,15,2.9,15,4.7,14
2018/5/9 0:57,2.8,15,2.9,15,3.7,14
2018/5/9 0:58,2.6,15,2.8,15,2.6,13
2018/5/9 0:59,2.5,15,2.6,15,2.4,15
2018/5/9 1:00,2.4,15,2.5,15,3.1,14
2018/5/9 1:01,2.5,15,2.5,15,5.6,14
2018/5/9 1:02,2.6,15,2.6,15,5.8,15
2018/5/9 1:03,2.7,15,2.7,15,3.9,15
2018/5/9 1:04,2.7,15,2.7,15,4.8,15
2018/5/9 1:05,2.7,15,2.7,15,4.9,15
2018/5/9 1:06,2.6,15,2.7,15,4.1,16
2018/5/9 1:07,2.5,15,2.6,15,2,16
2018/5/9 1:08,2.4,16,2.5,15,2,2
2018/5/9 1:09,2.4,16,2.4,15,2,1
2018/5/9 1:10,2.3,16,2.4,15,1.5,16
2018/5/9 1:11,2,16,2.3,15,2,16
2018/5/9 1:12,1.9,16,2,15,3.7,15
2018/5/9 1:13,1.8,16,1.9,15,4.9,16
2018/5/9 1:14,1.7,16,1.8,15,3.9,16
2018/5/9 1:15,1.6,16,1.6,15,4.1,1
2018/5/9 1:16,1.6,16,1.6,15,4.4,1
2018/5/9 1:17,1.6,1,1.6,15,3.2,3
2018/5/9 1:18,1.7,1,1.7,16,3.2,2
2018/5/9 1:19,1.7,1,1.7,16,2,2
2018/5/9 1:20,1.7,1,1.7,16,0.8,16
2018/5/9 1:21,1.7,1,1.7,16,1.3,2
2018/5/9 1:22,1.5,1,1.7,16,1.3,1
2018/5/9 1:23,1.4,1,1.5,16,0.9,15
2018/5/9 1:24,1.3,1,1.4,1,1.6,16
2018/5/9 1:25,1.2,1,1.3,1,2.6,16
2018/5/9 1:26,1.3,1,1.3,1,4.8,16
2018/5/9 1:27,1.5,1,1.5,1,7.1,16
2018/5/9 1:28,1.7,16,1.7,1,7.6,16
2018/5/9 1:29,1.9,16,1.9,16,6.9,16
2018/5/9 1:30,2.2,16,2.2,16,4.8,16
2018/5/9 1:31,2.4,16,2.4,16,4.8,1
2018/5/9 1:32,2.6,16,2.6,16,3.8,1
2018/5/9 1:33,2.7,16,2.7,16,2.7,4
2018/5/9 1:34,2.7,16,2.7,16,3,16
2018/5/9 1:35,2.8,16,2.8,16,3.2,2
2018/5/9 1:36,2.6,16,2.8,16,3,2
2018/5/9 1:37,2.3,1,2.6,16,1.4,15
2018/5/9 1:38,1.9,1,2.3,16,1.9,1
2018/5/9 1:39,1.7,1,1.9,16,1.6,1
2018/5/9 1:40,1.4,1,1.6,16,0.6,15
2018/5/9 1:41,1.1,2,1.3,16,0.5,2
2018/5/9 1:42,0.9,1,1,16,2,15
2018/5/9 1:43,0.8,1,0.9,16,1.6,1
2018/5/9 1:44,0.9,1,0.9,16,2.5,1
2018/5/9 1:45,0.9,1,0.9,16,3.5,15
2018/5/9 1:46,1,1,1,16,2.9,16
2018/5/9 1:47,1.1,1,1.1,1,2.2,15
2018/5/9 1:48,1.2,1,1.2,1,4.4,2
2018/5/9 1:49,1.4,1,1.4,1,3.7,2
2018/5/9 1:50,1.6,1,1.6,1,4.7,3
2018/5/9 1:51,1.8,1,1.8,1,4.2,3
2018/5/9 1:52,1.9,2,1.9,1,3.3,3
2018/5/9 1:53,2,2,2,2,2.4,2
2018/5/9 1:54,1.9,1,2,2,2.2,13
2018/5/9 1:55,1.8,1,1.9,2,1.5,13
2018/5/9 1:56,1.7,1,1.8,2,1.3,11
2018/5/9 1:57,1.8,16,1.8,2,3.8,13
2018/5/9 1:58,1.8,15,1.8,2,4.8,1
2018/5/9 1:59,1.9,15,1.9,2,5.8,16
2018/5/9 2:00,1.9,14,2,2,4.7,15
2018/5/9 2:01,1.9,14,2,2,3.2,14
2018/5/9 2:02,1.9,14,1.9,2,2.5,15
2018/5/9 2:03,1.9,14,1.9,2,2.2,1
2018/5/9 2:04,1.8,14,1.9,15,2.1,12
2018/5/9 2:05,1.9,14,1.9,15,2.5,14
2018/5/9 2:06,2,14,2,15,3.5,16
2018/5/9 2:07,2,15,2.1,14,3.2,1
2018/5/9 2:08,1.9,15,2,14,2.7,16
2018/5/9 2:09,1.6,14,1.8,14,1.4,16
2018/5/9 2:10,1.4,14,1.5,14,1.1,14
2018/5/9 2:11,1.2,14,1.4,14,1.1,14
2018/5/9 2:12,1.1,14,1.2,14,0.8,6
2018/5/9 2:13,1,14,1.1,14,1.6,8
2018/5/9 2:14,0.9,14,1,14,0.4,14
2018/5/9 2:15,0.8,14,0.9,14,0.5,15
2018/5/9 2:16,0.6,14,0.7,14,1.1,12
2018/5/9 2:17,0.6,13,0.6,15,2.2,12
2018/5/9 2:18,0.7,13,0.7,15,2.9,13
2018/5/9 2:19,0.9,13,0.9,14,3.6,13
2018/5/9 2:20,1.1,13,1.1,14,4.3,15
2018/5/9 2:21,1.3,14,1.3,13,3.7,15
2018/5/9 2:22,1.5,14,1.5,14,3.7,13
2018/5/9 2:23,1.7,14,1.7,14,3.1,12
2018/5/9 2:24,1.9,14,1.9,14,3.5,12
2018/5/9 2:25,2.1,14,2.1,14,6.3,15
2018/5/9 2:26,2.5,14,2.5,14,5,12
2018/5/9 2:27,2.5,14,2.5,14,3.8,12
2018/5/9 2:28,2.4,14,2.5,14,1.9,13
2018/5/9 2:29,2.5,14,2.5,14,5.6,16
2018/5/9 2:30,2.6,14,2.6,14,6.7,15
2018/5/9 2:31,2.6,14,2.6,14,3.7,16
2018/5/9 2:32,2.6,14,2.6,14,3.7,16
2018/5/9 2:33,2.5,14,2.6,14,1.6,15
2018/5/9 2:34,2.5,14,2.5,14,4.7,11
2018/5/9 2:35,2.4,14,2.5,14,3.5,10
2018/5/9 2:36,2.4,14,2.4,14,4.9,16
2018/5/9 2:37,2.5,15,2.5,14,4.9,16
2018/5/9 2:38,2.7,15,2.7,15,4.2,1
2018/5/9 2:39,2.5,15,2.7,15,3.1,1
2018/5/9 2:40,2.2,15,2.5,15,1.3,13
2018/5/9 2:41,2,15,2.1,15,1.1,15
2018/5/9 2:42,1.8,15,2,15,0.6,14
2018/5/9 2:43,1.8,15,1.8,15,1.6,13
2018/5/9 2:44,1.6,15,1.8,15,1.5,11
2018/5/9 2:45,1.6,14,1.6,15,2.6,6
2018/5/9 2:46,1.4,14,1.6,15,2.9,9
2018/5/9 2:47,1.2,12,1.4,15,2.9,6
2018/5/9 2:48,1.1,11,1.2,15,2.7,5
2018/5/9 2:49,1,9,1.1,15,2,6
2018/5/9 2:50,1,8,1,15,0.6,5
2018/5/9 2:51,1,8,1,15,0.4,6
2018/5/9 2:52,1.1,8,1.1,15,1.9,10
2018/5/9 2:53,1.1,8,1.1,15,1.9,12
2018/5/9 2:54,1.2,8,1.2,15,2.4,12
2018/5/9 2:55,1.3,9,1.3,14,2.7,12
2018/5/9 2:56,1.3,9,1.3,13,3.5,9
2018/5/9 2:57,1.3,10,1.3,9,2.6,16
2018/5/9 2:58,1.3,11,1.3,9,5.1,15
2018/5/9 2:59,1.5,12,1.5,12,4.1,16
2018/5/9 3:00,1.7,13,1.7,12,3.9,1
2018/5/9 3:01,1.8,13,1.8,13,3.9,3
2018/5/9 3:02,1.7,14,1.8,13,1.3,5
2018/5/9 3:03,1.7,14,1.7,13,3.1,10
2018/5/9 3:04,1.7,14,1.7,13,3.3,16
2018/5/9 3:05,1.7,15,1.7,13,4.2,1
2018/5/9 3:06,1.6,16,1.7,13,4.1,1
2018/5/9 3:07,1.9,16,1.9,16,5,14
2018/5/9 3:08,1.9,16,1.9,16,5.8,14
2018/5/9 3:09,1.9,16,1.9,16,4.4,16
2018/5/9 3:10,2.2,16,2.2,16,7.1,14
2018/5/9 3:11,2.4,15,2.4,15,6.8,16
2018/5/9 3:12,2.6,15,2.6,15,4.4,16
2018/5/9 3:13,2.8,16,2.8,16,7.2,16
2018/5/9 3:14,2.9,16,2.9,16,5.4,16
2018/5/9 3:15,3.2,16,3.2,16,7.9,15
2018/5/9 3:16,3.4,15,3.4,15,6.1,14
2018/5/9 3:17,3.3,16,3.4,15,3.8,15
2018/5/9 3:18,3.1,16,3.3,15,3,16
2018/5/9 3:19,3.1,15,3.1,15,5,15
2018/5/9 3:20,2.9,16,3.1,15,5.4,14
2018/5/9 3:21,3,16,3,15,9.5,16
2018/5/9 3:22,3,15,3.1,15,5.7,15
2018/5/9 3:23,3,15,3,15,5.2,16
2018/5/9 3:24,2.8,15,3,15,2.4,13
2018/5/9 3:25,2.4,15,2.8,15,3,16
2018/5/9 3:26,2.6,15,2.6,15,8.2,15
2018/5/9 3:27,2.7,15,2.7,16,4.5,16
2018/5/9 3:28,2.8,15,2.8,16,5.5,16
2018/5/9 3:29,2.9,15,2.9,15,5.6,16
2018/5/9 3:30,3.1,15,3.1,16,7.4,15
2018/5/9 3:31,2.9,15,3.1,16,5.7,16
2018/5/9 3:32,3,15,3,15,7,16
2018/5/9 3:33,3.2,15,3.2,15,9.1,15
2018/5/9 3:34,3.5,16,3.5,16,7.2,15
2018/5/9 3:35,3.7,16,3.7,16,5.7,14
2018/5/9 3:36,3.7,15,3.7,16,10.1,14
2018/5/9 3:37,3.9,15,3.9,15,7.8,15
2018/5/9 3:38,3.9,15,3.9,15,6.5,1
2018/5/9 3:39,4.1,15,4.1,15,8.2,16
2018/5/9 3:40,4,15,4.1,15,8.2,16
2018/5/9 3:41,4.1,15,4.2,15,6.3,15
2018/5/9 3:42,4.4,15,4.4,15,9.8,16
2018/5/9 3:43,4.5,15,4.5,15,9.4,14
2018/5/9 3:44,4.2,15,4.5,15,4.5,14
2018/5/9 3:45,4.1,15,4.2,15,3.5,14
2018/5/9 3:46,3.9,15,4,15,4.8,13
2018/5/9 3:47,3.5,15,3.8,15,2.2,16
2018/5/9 3:48,3.3,15,3.4,15,2.4,12
2018/5/9 3:49,3.2,15,3.3,15,7,15
2018/5/9 3:50,3.1,15,3.2,15,4.9,14
2018/5/9 3:51,2.9,15,3.1,15,3.3,15
2018/5/9 3:52,2.7,15,2.9,15,8.9,16
2018/5/9 3:53,2.4,15,2.7,15,4.9,16
2018/5/9 3:54,2.8,15,2.8,15,10.3,15
2018/5/9 3:55,3.2,15,3.2,15,8.6,15
2018/5/9 3:56,3.6,15,3.6,15,11.1,15
2018/5/9 3:57,3.8,15,3.8,15,7.7,16
2018/5/9 3:58,4,15,4,15,6.3,14
2018/5/9 3:59,3.9,15,4,15,4.1,14
2018/5/9 4:00,3.8,15,3.9,15,6.1,16
2018/5/9 4:01,4,15,4,15,5.5,16
2018/5/9 4:02,3.9,15,4,15,4.8,13
2018/5/9 4:03,3.8,15,3.9,15,3.9,1
2018/5/9 4:04,3.3,15,3.8,15,4.2,15
2018/5/9 4:05,3.1,15,3.3,15,6,15
2018/5/9 4:06,2.7,15,3.1,15,4.3,16
2018/5/9 4:07,2.6,15,2.7,15,7,16
2018/5/9 4:08,2.5,15,2.7,15,4.1,16
2018/5/9 4:09,2.7,15,2.7,15,8.7,15
2018/5/9 4:10,3,15,3,15,7.8,16
2018/5/9 4:11,3.1,15,3.1,15,9.2,16
2018/5/9 4:12,3.3,15,3.3,15,10,15
2018/5/9 4:13,3.6,15,3.6,15,10.3,15
2018/5/9 4:14,4,15,4,15,8.4,15
2018/5/9 4:15,4.2,15,4.2,15,8.1,15
2018/5/9 4:16,4.2,15,4.2,15,4.4,1
2018/5/9 4:17,4.4,15,4.4,15,9.9,15
2018/5/9 4:18,4.8,15,4.8,15,8.6,15
2018/5/9 4:19,4.6,15,4.8,15,6.2,16
2018/5/9 4:20,4.4,15,4.6,15,5.4,16
2018/5/9 4:21,4.3,15,4.5,15,7.4,14
2018/5/9 4:22,4.2,15,4.3,15,5.8,16
2018/5/9 4:23,4,15,4.2,15,5.2,16
2018/5/9 4:24,3.8,15,4,15,4.4,15
2018/5/9 4:25,3.6,15,3.8,15,3.3,14
2018/5/9 4:26,3.6,15,3.6,15,4.9,15
2018/5/9 4:27,3.1,15,3.6,15,3.2,16
2018/5/9 4:28,2.9,15,3.1,15,4.4,16
2018/5/9 4:29,2.7,15,2.9,15,4.2,16
2018/5/9 4:30,2.9,15,2.9,15,7.5,15
2018/5/9 4:31,2.9,15,3,15,7.8,16
2018/5/9 4:32,3,15,3,15,6.7,16
2018/5/9 4:33,2.9,15,3,15,4.2,16
2018/5/9 4:34,2.8,16,2.9,15,3.3,2
2018/5/9 4:35,2.7,16,2.8,15,2.9,16
2018/5/9 4:36,2.7,16,2.7,15,4.8,15
2018/5/9 4:37,2.8,15,2.8,15,5.4,15
2018/5/9 4:38,2.7,16,2.8,15,2,2
2018/5/9 4:39,2.5,16,2.7,15,2.4,16
2018/5/9 4:40,2.3,16,2.5,15,1.8,4
2018/5/9 4:41,2.1,16,2.3,15,7.8,15
2018/5/9 4:42,2.1,16,2.1,15,8.2,16
2018/5/9 4:43,2.1,16,2.2,15,5,15
2018/5/9 4:44,2.2,16,2.2,16,6.1,14
2018/5/9 4:45,2.4,15,2.4,15,4.5,11
2018/5/9 4:46,2.3,15,2.4,15,5.1,11
2018/5/9 4:47,2.1,15,2.2,15,2.6,10
2018/5/9 4:48,2.4,15,2.4,16,7.8,16
2018/5/9 4:49,3,15,3,15,11.4,16
2018/5/9 4:50,3.3,15,3.3,15,6.9,15
2018/5/9 4:51,3.2,14,3.3,15,5.4,16
2018/5/9 4:52,3.1,14,3.2,15,7.2,14
2018/5/9 4:53,3.4,14,3.4,14,9.3,16
2018/5/9 4:54,3.5,14,3.6,14,7.6,13
2018/5/9 4:55,3.6,14,3.6,14,5.7,12
2018/5/9 4:56,3.7,15,3.7,15,3.9,16
2018/5/9 4:57,3.9,15,3.9,15,6.3,15
2018/5/9 4:58,3.7,15,3.9,15,5.5,16
2018/5/9 4:59,3.5,15,3.7,15,8.2,15
2018/5/9 5:00,3.6,15,3.6,15,7.1,14
2018/5/9 5:01,3.8,15,3.8,15,8.2,14
2018/5/9 5:02,3.9,15,3.9,15,7.8,1
2018/5/9 5:03,4.1,15,4.1,15,11.7,14
2018/5/9 5:04,4.4,15,4.4,15,11.5,14
2018/5/9 5:05,4.5,15,4.5,15,7.9,15
2018/5/9 5:06,4.6,15,4.6,15,6.2,16
2018/5/9 5:07,4.5,15,4.6,15,7.8,15
2018/5/9 5:08,5,15,5,15,9.5,16
2018/5/9 5:09,4.7,15,5,15,5.4,16
2018/5/9 5:10,4.5,15,4.7,15,5.4,14
2018/5/9 5:11,4.5,15,4.5,15,8.1,15
2018/5/9 5:12,4.5,15,4.5,15,6.2,14
2018/5/9 5:13,4.3,15,4.5,15,7.4,16
2018/5/9 5:14,4.3,15,4.3,15,10,15
2018/5/9 5:15,4.2,15,4.3,15,6.5,16
2018/5/9 5:16,4.4,15,4.4,15,9.2,15
2018/5/9 5:17,4.7,15,4.7,15,10,15
2018/5/9 5:18,4.6,15,4.7,15,9.2,15
2018/5/9 5:19,4.7,15,4.7,15,7.1,16
2018/5/9 5:20,4.9,15,4.9,15,7.6,15
2018/5/9 5:21,4.8,15,4.9,15,5.6,14
2018/5/9 5:22,4.6,15,4.8,15,5.6,15
2018/5/9 5:23,4.4,15,4.6,15,5.5,16
2018/5/9 5:24,4,15,4.4,15,3.3,15
2018/5/9 5:25,4,15,4,15,9.5,14
2018/5/9 5:26,4.2,15,4.2,15,11,14
2018/5/9 5:27,4.1,15,4.1,15,9.2,16
2018/5/9 5:28,3.8,15,4.1,15,4.7,16
2018/5/9 5:29,3.9,15,4,15,8.7,2
2018/5/9 5:30,3.9,15,4,15,8.6,15
2018/5/9 5:31,4.1,15,4.1,15,8.4,15
2018/5/9 5:32,4.2,15,4.3,15,8.1,15
2018/5/9 5:33,4.5,15,4.5,15,10.6,14
2018/5/9 5:34,4.9,15,4.9,15,9.8,15
2018/5/9 5:35,5.1,15,5.2,15,10.2,16
2018/5/9 5:36,5.2,15,5.2,15,11.4,15
2018/5/9 5:37,5.2,15,5.3,15,10.5,15
2018/5/9 5:38,5.2,15,5.2,15,3.5,16
2018/5/9 5:39,5,15,5.1,15,6.4,15
2018/5/9 5:40,5.1,15,5.1,15,7,15
2018/5/9 5:41,5,15,5.1,15,8.5,15
2018/5/9 5:42,4.9,15,5,15,6,15
2018/5/9 5:43,4.6,15,5,15,5.8,16
2018/5/9 5:44,4.2,15,4.6,15,2.7,1
2018/5/9 5:45,4,15,4.1,15,8.5,14
2018/5/9 5:46,3.6,15,4,15,5,15
2018/5/9 5:47,3.6,15,3.6,15,7.8,15
2018/5/9 5:48,3.8,15,3.8,15,7.1,15
2018/5/9 5:49,3.8,15,3.8,15,6,15
2018/5/9 5:50,3.8,15,3.8,15,7,16
2018/5/9 5:51,3.9,15,3.9,15,9.7,16
2018/5/9 5:52,4.1,15,4.1,15,8.3,16
2018/5/9 5:53,4.2,15,4.2,15,6.5,15
2018/5/9 5:54,4.5,15,4.5,15,10.8,16
2018/5/9 5:55,4.5,15,4.5,15,8.6,1
2018/5/9 5:56,4.7,15,4.7,15,8.9,15
2018/5/9 5:57,4.7,15,4.8,15,6.3,14
2018/5/9 5:58,4.6,15,4.7,15,5.4,16
2018/5/9 5:59,4.6,15,4.6,15,6.4,16
2018/5/9 6:00,4.7,15,4.7,15,8.3,15
2018/5/9 6:01,4.4,15,4.8,15,8.3,15
2018/5/9 6:02,4.2,15,4.4,15,8.7,16
2018/5/9 6:03,4.3,15,4.3,15,7.5,15
2018/5/9 6:04,4.2,15,4.4,15,6.3,16
2018/5/9 6:05,4.4,15,4.4,15,11.1,16
2018/5/9 6:06,4.2,15,4.4,15,9.1,16
2018/5/9 6:07,4.2,15,4.3,15,7.2,1
2018/5/9 6:08,4.4,15,4.4,15,8.2,14
2018/5/9 6:09,4.5,15,4.5,15,9.2,16
2018/5/9 6:10,4.5,15,4.5,15,8.5,15
2018/5/9 6:11,5,15,5,15,13.9,14
2018/5/9 6:12,5.2,15,5.3,15,11,15
2018/5/9 6:13,5.1,15,5.2,15,7,15
2018/5/9 6:14,5.3,15,5.3,15,9.7,16
2018/5/9 6:15,5.1,15,5.3,15,8.6,16
2018/5/9 6:16,5.2,15,5.2,15,8.7,1
2018/5/9 6:17,5.2,15,5.3,15,8.3,15
2018/5/9 6:18,5.4,15,5.5,15,13.4,14
2018/5/9 6:19,5.3,15,5.4,15,9.4,1
2018/5/9 6:20,5.3,15,5.4,15,9.2,15
2018/5/9 6:21,4.8,15,5.3,15,9,12
2018/5/9 6:22,4.7,15,4.9,15,11,14
2018/5/9 6:23,4.6,15,4.7,15,4.8,14
2018/5/9 6:24,4.7,15,4.7,15,8.5,15
2018/5/9 6:25,4.6,15,4.7,15,9.9,14
2018/5/9 6:26,4.7,15,4.7,15,7.8,14
2018/5/9 6:27,4.8,15,4.9,15,8.4,16
2018/5/9 6:28,4.8,15,4.8,15,13.6,15
2018/5/9 6:29,4.9,15,4.9,15,8.7,16
2018/5/9 6:30,4.9,15,4.9,15,9.4,14
2018/5/9 6:31,5.1,15,5.2,15,11,14
2018/5/9 6:32,5.2,15,5.2,15,8.4,15
2018/5/9 6:33,5.4,15,5.4,15,7.8,16
2018/5/9 6:34,5.2,15,5.4,15,5.7,16
2018/5/9 6:35,5.3,15,5.3,15,9.5,14
2018/5/9 6:36,5.2,15,5.3,15,7.7,15
2018/5/9 6:37,5.2,15,5.2,15,6.5,15
2018/5/9 6:38,4.8,15,5.2,15,6.9,15
2018/5/9 6:39,4.5,15,4.7,15,6.8,1
2018/5/9 6:40,4.5,15,4.6,15,9.3,15
2018/5/9 6:41,4.6,15,4.6,15,8.7,16
2018/5/9 6:42,4.3,16,4.6,15,4.9,1
2018/5/9 6:43,4,15,4.3,15,2.2,16
2018/5/9 6:44,3.7,16,4,15,1.5,16
2018/5/9 6:45,3.2,16,3.7,15,1.6,15
2018/5/9 6:46,3,15,3.2,15,3,15
2018/5/9 6:47,2.8,15,2.9,15,3.8,15
2018/5/9 6:48,2.6,16,2.7,15,2.7,15
2018/5/9 6:49,2.6,16,2.6,15,4.4,1
2018/5/9 6:50,2.4,16,2.6,15,4.2,15
2018/5/9 6:51,2.1,16,2.3,15,6.5,15
2018/5/9 6:52,2.1,15,2.1,16,8.2,14
2018/5/9 6:53,2.7,15,2.7,16,10.7,15
2018/5/9 6:54,3,15,3,16,7.8,15
2018/5/9 6:55,3.4,15,3.4,15,9,15
2018/5/9 6:56,3.6,15,3.6,15,7.5,15
2018/5/9 6:57,3.6,15,3.6,15,4.7,12
2018/5/9 6:58,3.9,15,3.9,15,11.4,15
2018/5/9 6:59,4.1,15,4.1,15,8.1,15
2018/5/9 7:00,4.4,15,4.4,15,9.7,14
2018/5/9 7:01,4.4,15,4.5,15,6,16
2018/5/9 7:02,4.3,15,4.4,15,3.8,1
2018/5/9 7:03,3.9,15,4.3,15,5.1,1
2018/5/9 7:04,3.9,15,3.9,15,6.1,14
2018/5/9 7:05,3.8,15,3.9,15,7.6,15
2018/5/9 7:06,3.6,16,3.8,15,5.6,16
2018/5/9 7:07,3.8,15,3.8,15,8.9,14
2018/5/9 7:08,3.8,15,3.9,15,7.8,15
2018/5/9 7:09,3.7,16,3.8,15,7.7,15
2018/5/9 7:10,3.7,16,3.8,15,9.2,15
2018/5/9 7:11,3.9,15,3.9,15,8.3,16
2018/5/9 7:12,4,15,4.1,15,8.9,1
2018/5/9 7:13,4,15,4.1,15,4.4,16
2018/5/9 7:14,4.2,15,4.2,15,7.5,16
2018/5/9 7:15,4.1,15,4.2,15,6.4,1
2018/5/9 7:16,4.1,15,4.1,15,4.2,1
2018/5/9 7:17,3.8,16,4.1,15,2.5,1
2018/5/9 7:18,3.5,16,3.8,15,3.1,1
2018/5/9 7:19,3.3,16,3.4,15,5.1,16
2018/5/9 7:20,3.1,16,3.3,15,7.2,16
2018/5/9 7:21,3,16,3.1,15,6.9,15
2018/5/9 7:22,3.1,16,3.1,15,8.5,16
2018/5/9 7:23,3.4,16,3.4,15,11.4,1
2018/5/9 7:24,3.5,16,3.5,15,12.7,14
2018/5/9 7:25,3.4,15,3.5,15,4.4,14
2018/5/9 7:26,3.6,15,3.6,15,7.4,13
2018/5/9 7:27,3.8,15,3.8,16,7.1,1
2018/5/9 7:28,4,15,4,15,6.2,15
2018/5/9 7:29,4.5,15,4.5,15,11,14
2018/5/9 7:30,4.4,15,4.6,15,6.3,16
2018/5/9 7:31,4.4,15,4.4,15,7.5,15
2018/5/9 7:32,4.4,15,4.4,15,9.4,15
2018/5/9 7:33,4.3,15,4.4,15,10.3,15
2018/5/9 7:34,4.1,15,4.3,15,9.7,1
2018/5/9 7:35,4.1,15,4.2,15,7.4,16
2018/5/9 7:36,4.1,15,4.1,15,8.7,14
2018/5/9 7:37,4.3,15,4.3,15,8.5,14
2018/5/9 7:38,4.2,15,4.3,15,5.1,16
2018/5/9 7:39,4,15,4.2,15,8.6,16
2018/5/9 7:40,4.4,15,4.4,15,9.2,16
2018/5/9 7:41,4.3,16,4.4,15,7.2,1
2018/5/9 7:42,4,16,4.3,15,3.5,4
2018/5/9 7:43,3.8,16,3.9,15,4.9,15
2018/5/9 7:44,3.5,16,3.8,15,6.5,15
2018/5/9 7:45,3.4,16,3.5,15,3.6,10
2018/5/9 7:46,3.2,16,3.4,15,6.4,16
2018/5/9 7:47,3.2,16,3.3,15,10.1,15
2018/5/9 7:48,3.4,16,3.4,15,7.5,14
2018/5/9 7:49,3.5,16,3.5,15,8.9,1
2018/5/9 7:50,3.7,16,3.7,15,15.3,15
2018/5/9 7:51,4,16,4,16,11.4,15
2018/5/9 7:52,4.3,15,4.3,15,8.2,16
2018/5/9 7:53,4.3,16,4.4,16,6.3,1
2018/5/9 7:54,4.2,15,4.3,16,2.6,16
2018/5/9 7:55,4.4,16,4.4,16,9.5,15
2018/5/9 7:56,4.6,16,4.6,16,11,16
2018/5/9 7:57,4.5,16,4.7,16,10.8,1
2018/5/9 7:58,4.4,16,4.5,16,6.7,16
2018/5/9 7:59,4.1,16,4.4,16,4.8,14
2018/5/9 8:00,3.4,16,4,16,3.5,2
2018/5/9 8:01,3,16,3.4,16,3.5,3
2018/5/9 8:02,3.2,16,3.2,16,11.3,1
2018/5/9 8:03,3.4,15,3.4,16,11.6,1
2018/5/9 8:04,3.7,16,3.7,16,7.7,15
2018/5/9 8:05,3.9,16,3.9,16,10,16
2018/5/9 8:06,3.7,16,3.9,16,7.5,16
2018/5/9 8:07,4,15,4,16,12.3,15
2018/5/9 8:08,4.3,16,4.3,16,11.8,16
2018/5/9 8:09,4.4,16,4.4,16,6.5,16
2018/5/9 8:10,4.7,15,4.7,15,8.4,13
2018/5/9 8:11,5.2,15,5.2,15,11,15
2018/5/9 8:12,5.3,15,5.5,15,15.1,15
2018/5/9 8:13,5.4,15,5.4,15,9.4,15
2018/5/9 8:14,5.5,15,5.5,15,8.6,14
2018/5/9 8:15,5.5,15,5.5,15,10.8,16
2018/5/9 8:16,5.7,15,5.7,15,9.5,16
2018/5/9 8:17,5.3,15,5.7,15,9.1,15
2018/5/9 8:18,5,15,5.2,15,5.6,15
2018/5/9 8:19,5.3,15,5.3,15,10,15
2018/5/9 8:20,5.3,15,5.4,15,10.5,15
2018/5/9 8:21,5.1,15,5.4,15,12.7,16
2018/5/9 8:22,4.6,15,5.1,15,7.2,15
2018/5/9 8:23,4.3,16,4.6,15,5.1,15
2018/5/9 8:24,4.2,16,4.3,15,9.1,13
2018/5/9 8:25,4.2,15,4.3,15,13.4,15
2018/5/9 8:26,4.3,16,4.3,15,8.7,1
2018/5/9 8:27,4.6,16,4.6,15,11.9,15
2018/5/9 8:28,4.9,16,4.9,15,13.1,15
2018/5/9 8:29,4.8,15,4.9,15,8.2,13
2018/5/9 8:30,4.5,15,4.7,15,5.2,1
2018/5/9 8:31,4.3,15,4.5,15,7.2,16
2018/5/9 8:32,4.5,15,4.5,16,9.3,15
2018/5/9 8:33,4.7,15,4.7,16,10.1,15
2018/5/9 8:34,5,15,5.1,15,11.5,15
2018/5/9 8:35,5,15,5,15,9,16
2018/5/9 8:36,5.1,15,5.2,15,10,15
2018/5/9 8:37,5,15,5.2,15,11,15
2018/5/9 8:38,4.7,15,5,15,7,15
2018/5/9 8:39,4.8,15,4.8,15,8.6,15
2018/5/9 8:40,5.2,15,5.2,15,10.8,16
2018/5/9 8:41,5.4,15,5.4,15,8.3,1
2018/5/9 8:42,5.3,15,5.4,15,7.6,2
2018/5/9 8:43,5.5,15,5.5,15,11.1,16
2018/5/9 8:44,5.2,15,5.5,15,9.4,15
2018/5/9 8:45,5.3,15,5.4,15,9.3,15
2018/5/9 8:46,5,16,5.2,15,6.2,1
2018/5/9 8:47,4.8,16,5,15,6.2,1
2018/5/9 8:48,4.6,16,4.8,15,4.4,2
2018/5/9 8:49,4.2,16,4.6,15,0.9,4
2018/5/9 8:50,3.6,16,4.1,15,1.8,14
2018/5/9 8:51,3.2,16,3.5,15,2.7,9
2018/5/9 8:52,3.1,16,3.2,15,2.5,6
2018/5/9 8:53,2.6,1,3,15,2.7,6
2018/5/9 8:54,2.4,1,2.6,15,6.8,14
2018/5/9 8:55,2.3,16,2.4,15,7.7,16
2018/5/9 8:56,2.4,1,2.4,16,10.2,15
2018/5/9 8:57,2.4,16,2.5,16,8.4,3
2018/5/9 8:58,2.4,1,2.4,16,5,16
2018/5/9 8:59,2.8,16,2.8,16,7.1,1
2018/5/9 9:00,3,16,3,16,9.3,16
2018/5/9 9:01,3.2,16,3.2,16,9.4,15
2018/5/9 9:02,3.4,16,3.5,16,10.7,15
2018/5/9 9:03,3.5,16,3.5,16,5.4,13
2018/5/9 9:04,3.5,16,3.6,16,7.4,1
2018/5/9 9:05,3.6,16,3.6,16,9.5,16
2018/5/9 9:06,3.3,16,3.6,16,6.8,15
2018/5/9 9:07,3.3,15,3.3,16,6.7,15
2018/5/9 9:08,3.7,15,3.7,15,9.4,15
2018/5/9 9:09,3.8,15,3.8,15,9.7,1
2018/5/9 9:10,3.9,15,3.9,15,10.7,14
2018/5/9 9:11,4.1,15,4.2,15,8.6,15
2018/5/9 9:12,4.4,15,4.4,15,12.3,16
2018/5/9 9:13,5,15,5,15,11.5,16
2018/5/9 9:14,5.2,15,5.2,15,10.3,16
2018/5/9 9:15,5.1,15,5.2,15,7.4,1
2018/5/9 9:16,5.1,15,5.2,15,7.4,1
2018/5/9 9:17,5,16,5,15,9.8,15
2018/5/9 9:18,4.9,16,5.1,15,10.2,16
2018/5/9 9:19,4.9,15,4.9,15,6.5,16
2018/5/9 9:20,5.1,15,5.1,15,12.5,16
2018/5/9 9:21,5.5,15,5.5,15,13.2,15
2018/5/9 9:22,5.4,16,5.5,15,11.4,16
2018/5/9 9:23,5.2,15,5.4,15,10.5,16
2018/5/9 9:24,5.4,15,5.4,15,11.6,14
2018/5/9 9:25,5.5,15,5.5,15,8.7,16
2018/5/9 9:26,5.6,15,5.7,15,8.3,16
2018/5/9 9:27,6,15,6,15,12.1,14
2018/5/9 9:28,6.3,15,6.3,15,13.9,15
2018/5/9 9:29,6.3,15,6.4,15,7.6,14
2018/5/9 9:30,6,15,6.3,15,8.9,15
2018/5/9 9:31,5.7,15,6,15,10.9,16
2018/5/9 9:32,5.9,15,5.9,15,12.4,16
2018/5/9 9:33,6,15,6,15,14.9,14
2018/5/9 9:34,5.8,16,6.1,15,11.4,15
2018/5/9 9:35,5.8,16,5.9,15,9.1,16
2018/5/9 9:36,5.6,16,5.7,15,3.8,16
2018/5/9 9:37,5.8,16,5.8,15,12.3,15
2018/5/9 9:38,5.4,16,5.7,15,9.7,16
2018/5/9 9:39,5.3,16,5.3,15,4.8,15
2018/5/9 9:40,5.3,16,5.3,15,9.3,15
2018/5/9 9:41,5.2,16,5.3,15,8.5,15
2018/5/9 9:42,5.1,15,5.2,15,9,14
2018/5/9 9:43,4.9,16,5,15,7.8,15
2018/5/9 9:44,4.9,16,4.9,16,12.8,16
2018/5/9 9:45,5.1,15,5.1,16,10,15
2018/5/9 9:46,5.3,15,5.3,16,7.2,15
2018/5/9 9:47,5.1,15,5.3,16,10.7,16
2018/5/9 9:48,5.2,15,5.2,16,11.5,15
2018/5/9 9:49,5.6,15,5.6,15,9.2,15
2018/5/9 9:50,5.5,15,5.6,15,9.7,15
2018/5/9 9:51,5.6,15,5.7,15,10.1,15
2018/5/9 9:52,5.5,15,5.7,15,6.3,15
2018/5/9 9:53,5.1,15,5.4,15,6,15
2018/5/9 9:54,5.4,15,5.4,15,12.7,15
2018/5/9 9:55,5.2,15,5.4,15,9.1,15
2018/5/9 9:56,5,15,5.2,15,5.4,13
2018/5/9 9:57,4.8,15,5,15,5.2,1
2018/5/9 9:58,4.5,15,4.7,15,7.6,15
2018/5/9 9:59,4.4,15,4.5,15,9.8,15
2018/5/9 10:00,4.7,15,4.7,15,12.2,16
2018/5/9 10:01,4.9,15,4.9,15,12.1,16
2018/5/9 10:02,5.2,15,5.2,15,12.3,1
2018/5/9 10:03,5.5,15,5.5,15,8.2,16
2018/5/9 10:04,5.2,15,5.5,15,9,1
2018/5/9 10:05,5.2,16,5.2,15,8.5,16
2018/5/9 10:06,5.4,16,5.4,15,10.8,15
2018/5/9 10:07,5.7,15,5.7,16,11.1,15
2018/5/9 10:08,5.8,16,5.9,16,8.4,1
2018/5/9 10:09,5.8,16,6,16,9.9,16
2018/5/9 10:10,5.5,16,5.7,16,9.2,15
2018/5/9 10:11,5.6,16,5.6,16,13.5,16
2018/5/9 10:12,5.5,16,5.6,16,9.4,16
2018/5/9 10:13,5.3,16,5.5,16,6.1,15
2018/5/9 10:14,5.5,16,5.5,16,13.4,15
2018/5/9 10:15,5.7,15,5.8,16,9.2,16
2018/5/9 10:16,5.7,15,5.8,16,8.6,16
2018/5/9 10:17,5.2,15,5.6,16,5.2,16
2018/5/9 10:18,5,15,5.2,16,4.5,16
2018/5/9 10:19,4.9,15,4.9,15,6.9,13
2018/5/9 10:20,4.7,15,4.9,15,6.2,15
2018/5/9 10:21,4.3,15,4.7,15,6.5,15
2018/5/9 10:22,4,15,4.2,15,7,1
2018/5/9 10:23,4.1,15,4.2,15,11,16
2018/5/9 10:24,4,15,4.2,15,11.1,16
2018/5/9 10:25,3.9,15,3.9,15,8.7,15
2018/5/9 10:26,4.2,15,4.2,15,11.8,15
2018/5/9 10:27,4.5,15,4.5,15,11.8,16
2018/5/9 10:28,4.8,15,4.8,15,10.1,15
2018/5/9 10:29,4.9,15,4.9,15,10.3,15
2018/5/9 10:30,5.2,15,5.2,15,12.7,16
2018/5/9 10:31,5.3,15,5.3,15,8.5,16
2018/5/9 10:32,5.3,15,5.4,15,7.2,16
2018/5/9 10:33,5.4,15,5.4,15,8.6,16
2018/5/9 10:34,5.3,16,5.4,15,7.8,15
2018/5/9 10:35,5.4,16,5.4,15,9.5,16
2018/5/9 10:36,5.2,16,5.4,15,10.2,15
2018/5/9 10:37,5.1,16,5.3,15,7.4,15
2018/5/9 10:38,5.1,16,5.2,15,8.4,14
2018/5/9 10:39,5.2,16,5.2,15,10.8,15
2018/5/9 10:40,5.1,16,5.2,15,8.6,16
2018/5/9 10:41,5.1,16,5.1,15,8.2,16
2018/5/9 10:42,5.3,16,5.3,15,7.9,15
2018/5/9 10:43,5.2,16,5.3,15,8.4,15
2018/5/9 10:44,4.8,16,5.2,16,3,16
2018/5/9 10:45,4.5,15,4.8,16,3.2,15
2018/5/9 10:46,4.4,15,4.4,16,11.5,15
2018/5/9 10:47,4.2,15,4.4,16,6.3,15
2018/5/9 10:48,3.8,16,4.1,16,3.1,1
2018/5/9 10:49,3.4,15,3.8,16,4.1,13
2018/5/9 10:50,3,15,3.3,16,3.9,12
2018/5/9 10:51,3.1,15,3.1,16,11.6,16
2018/5/9 10:52,3.2,15,3.3,16,11.6,16
2018/5/9 10:53,3.2,15,3.2,16,7.6,16
2018/5/9 10:54,3.7,15,3.7,16,10.5,16
2018/5/9 10:55,4.3,15,4.3,15,11.7,15
2018/5/9 10:56,4.4,15,4.4,15,9.8,16
2018/5/9 10:57,4.7,15,4.7,15,9,15
2018/5/9 10:58,5,15,5,15,6.5,14
2018/5/9 10:59,5.4,15,5.4,15,7.9,16
2018/5/9 11:00,5.8,15,5.8,15,8.3,15
2018/5/9 11:01,5.8,15,5.9,15,12.4,14
2018/5/9 11:02,5.8,15,5.9,15,9.8,15
2018/5/9 11:03,5.8,15,5.9,15,8.6,15
2018/5/9 11:04,6,15,6,15,11,16
2018/5/9 11:05,5.6,15,6,15,7.5,16
2018/5/9 11:06,5.5,15,5.6,15,5.4,1
2018/5/9 11:07,5.5,15,5.5,15,9.5,16
2018/5/9 11:08,5.5,15,5.6,15,9.7,16
2018/5/9 11:09,5.5,15,5.5,15,9,15
2018/5/9 11:10,5.5,15,5.6,15,9.5,15
2018/5/9 11:11,5.1,15,5.6,15,6.4,15
2018/5/9 11:12,4.7,15,5,15,5.1,16